Location: Unspecified
(63.5943°N, 0.0000°E)
Time: 04:48:21
(UTC+00:00)

CZ-6A DEB - Visible Passes

Search period start: 04 April 2026 00:00
Search period end: 14 April 2026 00:00
Orbit: 789 x 879 km, 89.0° (Epoch: 28 March)

Date Brightness Start Highest point End Pass type
(mag) Time Alt. Az. Time Alt. Az. Time Alt. Az.
4 Apr ? 03:13:36 10° ENE 03:14:36 11° NE 03:15:35 10° NE visible
4 Apr ? 20:19:45 10° NNW 20:22:47 16° WNW 20:25:50 10° W visible
5 Apr ? 20:02:43 10° NNW 20:06:11 18° WNW 20:09:40 10° W visible
7 Apr ? 04:00:48 10° ESE 04:04:43 22° ENE 04:08:39 10° NNE visible
8 Apr ? 03:44:30 10° ESE 03:48:05 19° ENE 03:51:40 10° NNE visible
9 Apr ? 03:28:17 10° E 03:31:28 16° ENE 03:34:40 10° NNE visible
9 Apr ? 20:39:21 10° NW 20:39:39 10° NW 20:39:56 10° NW visible
10 Apr ? 03:12:09 10° E 03:14:53 14° NE 03:17:35 10° NNE visible
10 Apr ? 20:21:18 10° NNW 20:23:05 12° NW 20:24:54 10° WNW visible
11 Apr ? 02:56:10 10° ENE 02:58:17 12° NE 03:00:24 10° NNE visible
12 Apr ? 02:40:30 10° ENE 02:41:43 11° NE 02:42:56 10° NE visible
